Location: Newark
(0.5300°S, 127.4800°E)
Time: 15:16:13
(UTC+00:00)

Tiros 1 despin weight - Visible Passes

Search period start: 23 October 2019 00:00
Search period end: 02 November 2019 00:00
Orbit: 593 x 643 km, 48.2° (Epoch: 22 October)

Date Brightness Start Highest point End Pass type
(mag) Time Alt. Az. Time Alt. Az. Time Alt. Az.
24 Oct ? 10:42:46 10° S 10:45:28 24° SSE 10:45:28 24° SSE visible
25 Oct ? 10:58:37 10° SW 11:02:05 52° SSW 11:02:05 52° SSW visible
26 Oct ? 09:35:33 10° SSE 09:38:12 15° SE 09:40:52 10° E visible
26 Oct ? 11:15:27 10° WSW 11:18:45 34° WNW 11:18:45 34° WNW visible
27 Oct ? 09:50:34 10° SSW 09:54:45 40° SE 09:58:21 14° ENE visible
27 Oct ? 11:33:45 10° W 11:35:27 14° WNW 11:35:27 14° WNW visible
28 Oct ? 10:06:51 10° SW 10:11:16 69° NW 10:15:04 14° NNE visible
28 Oct ? 20:36:03 10° NNE 20:38:27 14° NE 20:40:50 10° E visible
29 Oct ? 10:24:09 10° WSW 10:27:48 24° NW 10:31:27 10° N visible
31 Oct ? 19:43:13 10° N 19:46:40 21° NE 19:50:08 10° E visible
01 Nov ? 09:33:13 10° W 09:36:00 16° NW 09:38:48 10° N visible
01 Nov ? 19:59:56 18° NNW 20:03:12 55° NE 20:07:44 10° SE visible
